[TLELIST] Archives

 

[list_settings.list_name] Current TLEs

May 22nd 2022 PST

HST 1 20580U 90037B 22141.94369389 .00004431 00000-0 25153-3 0 9996 2 20580 28.4709 344.4504 0002863 106.6146 31.1067 15.10480026562204 ISS (ZARYA) 1 25544U 98067A 22142.41742970 .00010590 00000-0 19593-3 0 9990 2 25544 51.6434 104.2167 0005050 142.6721 4.1704 15.49604431341189 CXO 1 25867U 99040B 22144.24561451 .00000482 00000-0 00000-0 0 9995 2 25867 46.0114 236.8620 8793021 233.1377 359.9837 0.37807001 11708 ____________________________________________________________________ These 2-Line ...Continue Reading

[list_settings.list_name] Current TLEs

May 21st 2022 PST

HST 1 20580U 90037B 22141.01635630 .00004205 00000-0 23824-3 0 9991 2 20580 28.4712 350.5937 0002859 97.4842 27.6386 15.10472279562060 ISS (ZARYA) 1 25544U 98067A 22141.28855693 .00011094 00000-0 20514-3 0 9996 2 25544 51.6426 109.8019 0005040 139.8850 185.3354 15.49564730341008 CXO 1 25867U 99040B 22144.24465977 .00000482 00000-0 00000-0 0 9991 2 25867 46.0114 236.8621 8793032 233.1377 359.8538 0.37806769 11708 ____________________________________________________________________ These 2-Line ...Continue Reading

[list_settings.list_name] Current TLEs

May 20th 2022 PST

HST 1 20580U 90037B 22139.94138804 .00004126 00000-0 23362-3 0 9990 2 20580 28.4713 357.7155 0002867 86.8326 301.3556 15.10463895561907 ISS (ZARYA) 1 25544U 98067A 22140.41167234 .00010661 00000-0 19761-3 0 9998 2 25544 51.6433 114.1428 0005046 137.0314 333.3447 15.49542898340873 CXO 1 25867U 99040B 22141.60122628 .00000623 00000-0 00000-0 0 9998 2 25867 46.0511 236.9987 8788686 233.0775 359.9363 0.37811502 11703 ____________________________________________________________________ These 2-Line ...Continue Reading

[list_settings.list_name] Current TLEs

May 19th 2022 PST

HST 1 20580U 90037B 22139.03836130 .00004043 00000-0 22875-3 0 9993 2 20580 28.4713 3.6977 0002863 77.7730 70.3260 15.10457467562038 ISS (ZARYA) 1 25544U 98067A 22139.38959465 .00010344 00000-0 19215-3 0 9999 2 25544 51.6425 119.2056 0005047 132.0015 33.1351 15.49519192340714 CXO 1 25867U 99040B 22141.59973603 .00000623 00000-0 00000-0 0 9993 2 25867 46.0510 236.9987 8788687 233.0774 359.7333 0.37811048 11690 ____________________________________________________________________ These 2-Line ...Continue Reading

[list_settings.list_name] Current TLEs

May 18th 2022 PST

HST 1 20580U 90037B 22137.90693675 .00003590 00000-0 20196-3 0 9992 2 20580 28.4713 11.1925 0002827 67.5129 36.1158 15.10448440561591 ISS (ZARYA) 1 25544U 98067A 22138.35677200 .00009783 00000-0 18232-3 0 9992 2 25544 51.6429 124.3175 0004984 131.6431 28.3696 15.49495649340553 CXO 1 25867U 99040B 22138.95819537 .00000677 00000-0 00000-0 0 9993 2 25867 46.1252 237.1891 8785548 232.9831 0.0452 0.37810462 11693 ____________________________________________________________________ These 2-Line ...Continue Reading

[list_settings.list_name] Current TLEs

May 17th 2022 PST

HST 1 20580U 90037B 22136.83938816 .00003331 00000-0 18665-3 0 9993 2 20580 28.4713 18.2648 0002826 56.7075 350.5008 15.10440609561439 ISS (ZARYA) 1 25544U 98067A 22137.32016253 .00033861 00000-0 60957-3 0 9998 2 25544 51.6420 129.4502 0005106 128.2951 5.5389 15.49480740340394 CXO 1 25867U 99040B 22138.95819537 .00000677 00000-0 00000-0 0 9993 2 25867 46.1252 237.1891 8785548 232.9831 0.0452 0.37810462 11693 ____________________________________________________________________ These 2-Line ...Continue Reading

[list_settings.list_name] Current TLEs

May 16th 2022 PST

HST 1 20580U 90037B 22135.91740561 .00003455 00000-0 19403-3 0 9997 2 20580 28.4713 24.3726 0002801 47.4065 16.5089 15.10435805561297 ISS (ZARYA) 1 25544U 98067A 22136.42268816 .00010598 00000-0 19707-3 0 9991 2 25544 51.6416 133.8918 0005215 127.9587 36.3978 15.49457968340258 CXO 1 25867U 99040B 22136.31458441 .00000725 00000-0 00000-0 0 9998 2 25867 46.2133 237.3775 8781663 232.9016 0.0619 0.37806844 11676 ____________________________________________________________________ These 2-Line ...Continue Reading

[list_settings.list_name] Current TLEs

May 15th 2022 PST

HST 1 20580U 90037B 22134.41622049 .00002713 00000-0 15007-3 0 9993 2 20580 28.4712 34.3170 0002773 31.5927 133.3610 15.10425257561062 ISS (ZARYA) 1 25544U 98067A 22135.38829332 .00060867 00000-0 10864-2 0 9999 2 25544 51.6393 139.0122 0005250 121.9117 28.7764 15.49456876340096 CXO 1 25867U 99040B 22136.31458441 .00000725 00000-0 00000-0 0 9998 2 25867 46.2133 237.3775 8781663 232.9016 0.0619 0.37806844 11676 ____________________________________________________________________ These 2-Line ...Continue Reading

[list_settings.list_name] Current TLEs

May 14th 2022 PST

HST 1 20580U 90037B 22134.14922885 .00002549 00000-0 14037-3 0 9993 2 20580 28.4712 36.0857 0002759 28.9240 121.3747 15.10423432561291 ISS (ZARYA) 1 25544U 98067A 22134.48739479 .00005728 00000-0 10799-3 0 9994 2 25544 51.6421 143.4753 0006808 97.6950 63.8739 15.50071920339951 CXO 1 25867U 99040B 22136.31387045 .00000725 00000-0 00000-0 0 9999 2 25867 46.2203 237.3851 8781651 232.8962 359.9669 0.37807690 11676 ____________________________________________________________________ These 2-Line ...Continue Reading

[list_settings.list_name] Current TLEs

May 13th 2022 PST

HST 1 20580U 90037B 22132.50155035 .00002290 00000-0 12501-3 0 9993 2 20580 28.4707 47.0006 0002669 11.0052 162.2544 15.10415710560778 ISS (ZARYA) 1 25544U 98067A 22132.54238162 .00007330 00000-0 13605-3 0 9992 2 25544 51.6432 153.1122 0006817 89.6534 11.1576 15.50041161339656 CXO 1 25867U 99040B 22133.66991137 .00000834 00000-0 00000+0 0 9997 2 25867 46.3041 237.5804 8781429 232.8111 359.9568 0.37814548 22823 ____________________________________________________________________ These 2-Line ...Continue Reading
  • This mailing list is a public mailing list - anyone may join or leave, at any time.
  • This mailing list is announce-only.

International Space Station (ISS) / Hubble Space Telescope (HST) / Chandra X-Ray Observatory Orbital Data via EMAIL

Privacy Policy:

Private list